Change the Weather History Date:

Monday, June 10, 2013

  Actual Average Record
Temperature  
Mean Temperature 58 °F -  
Max Temperature 69 °F 65 °F 87 °F (2012)
Min Temperature 46 °F 44 °F 32 °F (2006)
Degree Days  
Heating Degree Days 8    
Growing Degree Days 8 (Base 50)    
Moisture  
Dew Point 50 °F    
Average Humidity 79    
Maximum Humidity 94    
Minimum Humidity 56    
Precipitation  
Precipitation 0.00 in - - ()
Sea Level Pressure  
Sea Level Pressure 29.85 in    
Wind  
Wind Speed 2 mph (SSW)    
Max Wind Speed 8 mph    
Max Gust Speed -    
Visibility 7 miles    
Events Fog    
Averages and records for this station are not official NWS values.
T = Trace of Precipitation, MM = Missing Value Source: NWS Daily Summary

Daily Weather History Graph

Daily Weather History Graph

Search for Another Location

Airport or City:

Trip Planner

Search our weather history database for the weather conditions in past years. The results will help you decide how hot, cold, wet, or windy it might be!

Date:

Astronomy

Jun. 10, 2013 Rise Set
Actual Time 5:16 AM CDT 9:03 PM CDT
Civil Twilight 4:37 AM CDT 9:42 PM CDT
Nautical Twilight 3:44 AM CDT 10:35 PM CDT
Astronomical Twilight 2:28 AM CDT 11:51 PM CDT
Moon 7:10 AM CDT (6/10) 10:23 PM CDT (6/10)
Length of Visible Light 17h 05m
Length of Day
15h 46m
Waxing Crescent, 4% of the Moon is Illuminated
Jun 10
Waxing Crescent
Jun 16
First Quarter
Jun 23
Full
Jun 29
Last Quarter
Jul 8
New

Hourly Weather History & Observations

Time (CDT) Temp. Windchill Dew Point Humidity Pressure Visibility Wind Dir Wind Speed Gust Speed Precip Events Conditions
12:15 AM 48.2 °F - 44.6 °F 87% 29.87 in 4.0 mi East 4.6 mph - N/A   Overcast
12:36 AM 46.4 °F 44.3 °F 44.6 °F 93% 29.87 in 3.0 mi East 4.6 mph - N/A   Overcast
12:56 AM 46.4 °F - 44.6 °F 93% 29.87 in 3.0 mi Calm Calm - N/A   Overcast
1:15 AM 46.4 °F 45.2 °F 44.6 °F 93% 29.86 in 2.5 mi East 3.5 mph - N/A   Overcast
1:36 AM 46.4 °F 45.2 °F 44.6 °F 93% 29.85 in 2.5 mi ESE 3.5 mph - N/A   Overcast
1:56 AM 46.4 °F - 44.6 °F 93% 29.86 in 4.0 mi Calm Calm - N/A   Overcast
2:16 AM 46.4 °F - 44.6 °F 93% 29.85 in 5.0 mi Calm Calm - N/A   Overcast
2:36 AM 46.4 °F - 44.6 °F 93% 29.85 in 5.0 mi Calm Calm - N/A   Overcast
2:55 AM 46.4 °F 44.3 °F 44.6 °F 93% 29.84 in 4.0 mi ESE 4.6 mph - N/A   Overcast
3:16 AM 46.4 °F - 44.6 °F 93% 29.84 in 3.0 mi Calm Calm - N/A   Overcast
3:36 AM 46.4 °F - 44.6 °F 93% 29.84 in 3.0 mi Calm Calm - N/A   Overcast
3:55 AM 46.4 °F - 44.6 °F 93% 29.84 in 3.0 mi Calm Calm - N/A   Overcast
4:16 AM 46.4 °F 45.2 °F 44.6 °F 93% 29.84 in 3.0 mi ESE 3.5 mph - N/A   Overcast
4:36 AM 46.4 °F 45.2 °F 42.8 °F 87% 29.84 in 4.0 mi ESE 3.5 mph - N/A   Overcast
4:55 AM 46.4 °F - 42.8 °F 87% 29.85 in 4.0 mi Calm Calm - N/A   Overcast
5:16 AM 46.4 °F - 42.8 °F 87% 29.85 in 4.0 mi Calm Calm - N/A   Overcast
5:36 AM 46.4 °F - 42.8 °F 87% 29.84 in 4.0 mi Calm Calm - N/A   Overcast
5:56 AM 46.4 °F - 42.8 °F 87% 29.84 in 4.0 mi Calm Calm - N/A   Overcast
6:16 AM 46.4 °F - 42.8 °F 87% 29.84 in 4.0 mi Calm Calm - N/A   Overcast
6:36 AM 46.4 °F - 44.6 °F 93% 29.85 in 5.0 mi Calm Calm - N/A   Overcast
6:56 AM 48.2 °F - 44.6 °F 87% 29.85 in 5.0 mi Calm Calm - N/A   Overcast
7:16 AM 48.2 °F - 44.6 °F 87% 29.85 in 4.0 mi Calm Calm - N/A   Overcast
7:36 AM 48.2 °F - 44.6 °F 87% 29.85 in 1.5 mi Calm Calm - N/A   Overcast
7:56 AM 48.2 °F - 44.6 °F 87% 29.84 in 0.5 mi ESE 3.5 mph - N/A Fog Fog
8:15 AM 48.2 °F - 46.4 °F 93% 29.84 in 0.5 mi Calm Calm - N/A Fog Fog
8:36 AM 50.0 °F - 46.4 °F 87% 29.85 in 1.2 mi Calm Calm - N/A   Overcast
8:56 AM 50.0 °F - 46.4 °F 87% 29.86 in 1.0 mi Calm Calm - N/A   Overcast
9:16 AM 51.8 °F - 48.2 °F 88% 29.87 in 1.0 mi Calm Calm - N/A   Overcast
9:36 AM 51.8 °F - 48.2 °F 88% 29.87 in 0.5 mi Calm Calm - N/A Fog Fog
9:55 AM 51.8 °F - 48.2 °F 88% 29.86 in 1.0 mi Calm Calm - N/A   Overcast
10:16 AM 51.8 °F - 48.2 °F 88% 29.86 in 2.5 mi Calm Calm - N/A   Overcast
10:36 AM 53.6 °F - 51.8 °F 94% 29.86 in 3.0 mi Calm Calm - N/A   Overcast
10:55 AM 55.4 °F - 51.8 °F 88% 29.86 in 3.0 mi Calm Calm - N/A   Overcast
11:16 AM 55.4 °F - 51.8 °F 88% 29.86 in 4.0 mi Calm Calm - N/A   Overcast
11:36 AM 57.2 °F - 53.6 °F 88% 29.86 in 5.0 mi Calm Calm - N/A   Haze
11:55 AM 62.6 °F - 55.4 °F 77% 29.86 in 7.0 mi Calm Calm - N/A   Overcast
12:16 PM 62.6 °F - 55.4 °F 77% 29.85 in 10.0 mi Calm Calm - N/A   Mostly Cloudy
12:36 PM 62.6 °F - 55.4 °F 77% 29.84 in 10.0 mi Calm Calm - N/A   Overcast
12:55 PM 64.4 °F - 55.4 °F 73% 29.85 in 10.0 mi SSW 3.5 mph - N/A   Overcast
1:16 PM 64.4 °F - 55.4 °F 73% 29.85 in 10.0 mi SW 5.8 mph - N/A   Overcast
1:36 PM 64.4 °F - 55.4 °F 73% 29.86 in 10.0 mi SW 3.5 mph - N/A   Overcast
1:56 PM 64.4 °F - 53.6 °F 68% 29.85 in 10.0 mi Calm Calm - N/A   Overcast
2:16 PM 66.2 °F - 55.4 °F 68% 29.84 in 10.0 mi SW 3.5 mph - N/A   Overcast
2:36 PM 66.2 °F - 55.4 °F 68% 29.84 in 10.0 mi SSW 5.8 mph - N/A   Overcast
2:55 PM 66.2 °F - 53.6 °F 64% 29.84 in 10.0 mi SW 8.1 mph - N/A   Overcast
3:16 PM 68.0 °F - 53.6 °F 60% 29.84 in 10.0 mi South 6.9 mph - N/A   Overcast
3:35 PM 68.0 °F - 53.6 °F 60% 29.83 in 10.0 mi SSW 8.1 mph - N/A   Overcast
3:56 PM 66.2 °F - 53.6 °F 64% 29.84 in 10.0 mi South 6.9 mph - N/A   Overcast
4:16 PM 66.2 °F - 53.6 °F 64% 29.84 in 10.0 mi SSW 6.9 mph - N/A   Overcast
4:35 PM 68.0 °F - 53.6 °F 60% 29.84 in 10.0 mi SSW 8.1 mph - N/A   Mostly Cloudy
4:56 PM 68.0 °F - 53.6 °F 60% 29.84 in 10.0 mi WSW 3.5 mph - N/A   Mostly Cloudy
5:16 PM 66.2 °F - 53.6 °F 64% 29.85 in 10.0 mi SSW 6.9 mph - N/A   Overcast
5:35 PM 68.0 °F - 53.6 °F 60% 29.85 in 10.0 mi SW 5.8 mph - N/A   Overcast
5:56 PM 68.0 °F - 53.6 °F 60% 29.85 in 10.0 mi SSW 6.9 mph - N/A   Overcast
6:16 PM 69.8 °F - 53.6 °F 56% 29.85 in 10.0 mi SW 3.5 mph - N/A   Mostly Cloudy
6:35 PM 68.0 °F - 53.6 °F 60% 29.84 in 10.0 mi SW 4.6 mph - N/A   Scattered Clouds
6:56 PM 68.0 °F - 53.6 °F 60% 29.83 in 10.0 mi South 4.6 mph - N/A   Scattered Clouds
7:16 PM 68.0 °F - 53.6 °F 60% 29.84 in 10.0 mi SW 4.6 mph - N/A   Scattered Clouds
7:35 PM 66.2 °F - 53.6 °F 64% 29.84 in 10.0 mi Calm Calm - N/A   Scattered Clouds
7:56 PM 66.2 °F - 55.4 °F 68% 29.84 in 10.0 mi Calm Calm - N/A   Mostly Cloudy
8:16 PM 66.2 °F - 55.4 °F 68% 29.84 in 10.0 mi Calm Calm - N/A   Overcast
8:35 PM 66.2 °F - 55.4 °F 68% 29.84 in 10.0 mi Calm Calm - N/A   Mostly Cloudy
8:56 PM 64.4 °F - 57.2 °F 77% 29.83 in 10.0 mi Calm Calm - N/A   Mostly Cloudy
9:16 PM 62.6 °F - 55.4 °F 77% 29.83 in 10.0 mi Calm Calm - N/A   Overcast
9:35 PM 62.6 °F - 55.4 °F 77% 29.83 in 10.0 mi Calm Calm - N/A   Mostly Cloudy
9:56 PM 62.6 °F - 55.4 °F 77% 29.84 in 10.0 mi Calm Calm - N/A   Mostly Cloudy
10:15 PM 62.6 °F - 55.4 °F 77% 29.84 in 10.0 mi Calm Calm - N/A   Mostly Cloudy
10:36 PM 62.6 °F - 55.4 °F 77% 29.84 in 10.0 mi WSW 3.5 mph - N/A   Overcast
10:56 PM 62.6 °F - 55.4 °F 77% 29.84 in 10.0 mi SW 4.6 mph - N/A   Overcast
11:16 PM 62.6 °F - 55.4 °F 77% 29.84 in 10.0 mi Calm Calm - N/A   Overcast
11:36 PM 62.6 °F - 55.4 °F 77% 29.83 in 10.0 mi Calm Calm - N/A   Overcast
11:56 PM 60.8 °F - 55.4 °F 82% 29.83 in 10.0 mi South 3.5 mph - N/A   Overcast